Location: Peterborough
(44.3091°N, 78.3197°W)
Time: 03:48:27
(UTC-04:00)

S-56A Canister/Altair - Pass Details

Date: 26 March 2023
Orbit: 639 x 2492 km, 38.9° (Epoch: 08 June)

Event Time Altitude Azimuth Distance (km) Brightness Sun altitude
Rises 02:03:39 0° 284° (WNW) 6,067 12.1 -42.5°
Reaches altitude 10° 02:07:58 10° 277° (W) 5,133 11.6 -42.3°
Enters shadow 02:10:54 17° 270° (W) 4,550 11.2 -42.1°
Maximum altitude 02:20:51 36° 219° (SW) 3,344 - -41.6°
Drops below altitude 10° 02:32:17 10° 159° (SSE) 4,537 - -40.8°
Sets 02:35:53 0° 151° (SSE) 5,308 - -40.5°
